Regional Weather Roundup
Issued by NWS Spokane, WA

Home | Current Version | Previous Version | Text Only | Print | Product List | Glossary On
Versions: 1 2 3 4 5 6 7 8 9 10 11 12 13 14 15 16 17 18 19 20 21 22 23 24 25 26 27 28 29 30 31 32 33 34 35 36 37 38 39 40 41 42 43 44 45 46 47 48 49 50
000
NZUS01 KOTX 180025
RWROTX

Eastern Washington/Northern Idaho Roundup
National Weather Service, Spokane WA
500 PM PDT THU AUG 17 2017

Note: "fair" indicated few or no clouds below 12,000 feet with no
significant weather and/or obstructions to visibility.

...Northeast Washington and Northern Idaho Panhandle...

CITY           SKY/WX    TMP DP  RH WIND       PRES   REMARKS
Spokane Intl   MOSUNNY   82  39  21 S9        30.05F
Spokane Downto SUNNY     85  41  21 W10       30.03F
Coeur d Alene  SUNNY     83  44  25 W12       30.05F
Deer Park      SUNNY     84  36  18 SW8       30.03F
Sandpoint      SUNNY     82  43  24 SW5       30.03S
Bonners Ferry  FAIR      82  45  26 S9        30.00F

...Southeast Washington and southern Idaho Panhandle...

CITY           SKY/WX    TMP DP  RH WIND       PRES   REMARKS
Walla Walla    SUNNY     88  40  18 SW9       30.00F
Pullman/Moscow SUNNY     82  44  26 W9        30.09F
Lewiston       SUNNY     88  46  23 NW6       30.00F
Lowell           N/A     89  46  22 CALM      29.97
Grangeville    FAIR      82  45  26 NE13G18   30.08S

...Columbia Basin...

CITY           SKY/WX    TMP DP  RH WIND       PRES   REMARKS
Ephrata        SUNNY     86  40  19 S8        29.99F
Moses Lake     SUNNY     86  43  22 SW9       30.00F
Pasco          SUNNY     91  52  26 VRB5      29.96F
Richland       CLEAR     92  42  17 SW5       29.95F
Hermiston      SUNNY     88  48  25 VRB3      29.98F
Pendleton      SUNNY     87  37  17 W12       30.02F

...East Slopes Cascades...

CITY           SKY/WX    TMP DP  RH WIND       PRES   REMARKS
The Dalles     SUNNY     86  48  26 NW16      29.99S
Yakima         SUNNY     91  45  20 SE5       29.99F
Ellensburg     SUNNY     87  41  19 NW17G28   30.02S
Stampede Pass  SUNNY     64  52  64 SW8G17    30.21F
Wenatchee      SUNNY     85  47  26 SE9       29.97F
Omak           SUNNY     91  40  16 SW10      29.95F
Chelan           N/A     90  36  14 S8          N/A
Sunnyside        N/A     84  49  29 N3        29.98F

...Southern British Columbia...

CITY           SKY/WX    TMP DP  RH WIND       PRES   REMARKS
Penticton      SUNNY     88  48  25 CALM      29.90F
Castlegar      MOSUNNY   90  43  19 VRB6      29.93F
Cranbrook      MOSUNNY   84  37  18 W10G17    29.97S
Osoyoos          N/A     90  46  22 S3          N/A
Creston          N/A     86  45  23 S6          N/A

...Western Montana...

CITY           SKY/WX    TMP DP  RH WIND       PRES   REMARKS
Kalispell      CLEAR     83  44  25 S12       29.99F
Libby            N/A     84  37  18 W6        29.99S
Missoula       SUNNY     85  38  18 NW16      30.02F

...Neighboring Cities...

CITY           SKY/WX    TMP DP  RH WIND       PRES   REMARKS
Seattle        MOSUNNY   74  54  49 W7        30.16F
Portland       MOSUNNY   78  55  44 NW8       30.12F
Boise          SUNNY     87  40  19 VRB7      30.04F
Great Falls    MOSUNNY   82  35  18 CALM      30.01F
Calgary        SUNNY     77  45  31 SE10      29.96F SMOKE



USA.gov is the U.S. government's official web portal to all federal, state and local government web resources and services.